Showing default

OV1-19, 3825

Orbit data source: Space-Track

OV1-19, 3825 is a payload satellite owned by USAF OAR (US) that was launched on Tue, 18 Mar 1969 UTC via an ATLAS F launch vehicle from the Air Force Western Test Range (AFWTR). Payload-class satellites include a variety of spacecraft equipped with specific instruments for various scientific and technological missions. These include communications satellites like Starlink; space stations such as the ISS; scientific satellites like the Hubble; Earth observation satellites from companies like Planet Labs, Umbra, and HawkEye 360; GPS; miniature CubeSats for education and research; and military/defense satellites.

Loading next visibility...
Identifier
3825, 1969-025C
Orbit
Active
Country
Flag of USUS
Related business
Manufacturer
GD/Convair
Mission
Spacecraft
Bus & Motor
OV1, Unknown motor
Mass
123 kg wet, 123 kg dry
Launch date (UTC)
1969-03-18 (57 years ago)
Launch vehicle
ATLAS F
Launch site
Air Force Western Test Range (AFWTR)
Object type
Payload
Rocket body
Debris
Shape & HBR
Unknown
Radar Cross Section
Medium (>0.1 m² and <1 m²)

Expand to show TLE details & history
Last TLE update: 6 hours ago

TLE from 6 hours ago
0 OV1-19
1 03825U 69025C   26095.31591452  .00000798  00000-0  40161-3 0  9991
2 03825 104.7379 231.1034 2675522 118.7168 270.8316  9.58441360978265
Epoch: 2026-04-05T07:34Z
TLE epoch observation values (Epoch: 2026-04-05T07:34:55.014Z)
Latitude
-0.00003°
Longitude
-76.24891°
Altitude
3,593.766 km
Speed
6.115 km/s
True Right ascension
15h 24m 24s
True Declination
0° 00' 00"
Sunlit
Object was in full shadow at epoch
Visualization orbit readout
Latitude
Unknown
Longitude
Unknown
Altitude
Unknown
Speed
Unknown
Apparent Right ascension
Unknown
Apparent Declination
Unknown
Sunlit
N/A
Visualization observer readout
Local Sidereal Time
19:19:48
Azimuth
Unknown
Elevation
Unknown
Doppler factor
Unknown
Orbital elements
Apogee altitude
5,485.722 km
Perigee altitude
477.326 km
Semi-major axis
9,359.661 km
Eccentricity
0.26755
Inclination
104.7379°
RAAN
231.1034°
Arg. of periapsis
118.7168°
True anomaly
241.37613°
Mean anomaly
270.8316°
Eccentric anomaly
255.95994°
Mean motion
2.39692 °/min
Orbital period
150.19 mins
BSTAR
0.00040161
Loading maneuver chart data...
Computing Atmospheric mass density...
Loading historical data...
Loading historical data...
Loading historical data...
Loading historical data...
Loading historical data...
Loading historical data...
Loading historical data...

Documentation

Showing up to 5 results
|